Location: Domont
(49.0278°N, 2.3264°E)
Time: 01:54:27
(UTC+00:00)

XW-2A - Pass Details

Date: 29 June 2022
Orbit: 396 x 406 km, 97.2° (Epoch: 08 August)

Event Time Altitude Azimuth Distance (km) Brightness Sun altitude
Exits shadow 21:15:00 - 193° (SSW) 1,872 ? -9.5°
Reaches altitude 10° 21:16:05 10° 201° (SSW) 1,444 ? -9.6°
Maximum altitude 21:18:50 29° 263° (W) 773 ? -9.9°
Drops below altitude 10° 21:21:35 10° 326° (NW) 1,454 ? -10.2°
Sets 21:23:44 0° 338° (NNW) 2,317 ? -10.4°
